Weather reports worldwide

Advertisment
Ploce, Croatia (14462): temperature & dewpoint: 08.11.2018 17:00:00 - 14.11.2018 17:00:00 (CET)Ploce, Croatia (14462): wind speed: 08.11.2018 17:00:00 - 14.11.2018 17:00:00 (CET)Ploce, Croatia (14462): wind direction: 08.11.2018 17:00:00 - 14.11.2018 17:00:00 (CET)Ploce, Croatia (14462): reduced air pressure: 08.11.2018 17:00:00 - 14.11.2018 17:00:00 (CET)Ploce, Croatia (14462): visibility: 08.11.2018 17:00:00 - 14.11.2018 17:00:00 (CET)
Date & Time tt [°C] td [°C] ff [km/h] ff [kn] dd ppp [hPa] vv [km]
14.11.2018 17:00:00 17,0 3,3 11 6 N 1023,6 -
14.11.2018 16:00:00 19,6 7,7 4 2 WNW 1023,4 -
14.11.2018 15:00:00 21,5 5,0 7 4 N 1023,6 -
14.11.2018 14:00:00 22,1 4,7 11 6 NNE 1023,7 30
14.11.2018 13:00:00 21,8 5,1 14 8 NNE 1024,3 30
14.11.2018 12:00:00 21,6 6,6 4 2 NE 1025,0 30
14.11.2018 11:00:00 20,0 5,2 14 8 NNE 1025,8 30
14.11.2018 10:00:00 18,8 5,7 11 6 NNE 1026,1 30
14.11.2018 09:00:00 16,7 10,2 7 4 NE 1026,1 30
14.11.2018 08:00:00 11,8 10,0 0 0 N 1025,8 30
14.11.2018 07:00:00 9,3 8,1 7 4 ENE 1025,3 30
14.11.2018 06:00:00 9,4 8,7 7 4 ENE 1025,4 -
14.11.2018 05:00:00 9,3 8,6 7 4 ENE 1025,4 -
14.11.2018 04:00:00 9,4 8,6 7 4 ENE 1025,6 -
14.11.2018 03:00:00 - - - - - - -
14.11.2018 02:00:00 - - - - - - -
14.11.2018 01:00:00 10,8 9,9 4 2 E 1026,0 -
14.11.2018 00:00:00 - - - - - - -
13.11.2018 23:00:00 - - - - - - -
13.11.2018 22:00:00 11,7 10,7 0 0 N 1026,4 -
13.11.2018 21:00:00 12,2 10,6 0 0 N 1025,7 10
13.11.2018 20:00:00 12,6 11,0 4 2 NE 1025,8 10
13.11.2018 19:00:00 13,6 11,8 7 4 NE 1026,0 10
13.11.2018 18:00:00 15,7 12,1 0 0 N 1026,6 -
13.11.2018 17:00:00 16,5 12,7 7 4 NNE 1026,4 -
13.11.2018 16:00:00 17,7 12,9 4 2 N 1026,1 -
13.11.2018 15:00:00 18,7 12,7 7 4 WNW 1026,3 -
13.11.2018 14:00:00 18,3 12,8 7 4 WNW 1026,2 15
13.11.2018 13:00:00 17,6 12,3 11 6 SW 1026,6 15
13.11.2018 12:00:00 18,5 11,5 7 4 S 1027,0 15
13.11.2018 11:00:00 16,4 10,6 7 4 SSE 1027,7 10
13.11.2018 10:00:00 14,6 10,9 7 4 ESE 1027,8 10
13.11.2018 09:00:00 11,8 9,6 7 4 E 1028,0 10
13.11.2018 08:00:00 9,4 7,8 7 4 ENE 1028,0 10
13.11.2018 07:00:00 8,9 7,9 4 2 E 1027,7 10
13.11.2018 06:00:00 8,6 7,6 7 4 ENE 1028,1 -
13.11.2018 05:00:00 9,2 8,4 7 4 ENE 1028,0 -
13.11.2018 04:00:00 9,2 8,2 4 2 ENE 1028,0 -
13.11.2018 03:00:00 - - - - - - -
13.11.2018 02:00:00 - - - - - - -
13.11.2018 01:00:00 10,6 9,4 4 2 ENE 1027,7 -
13.11.2018 00:00:00 - - - - - - -
12.11.2018 23:00:00 - - - - - - -
12.11.2018 22:00:00 10,7 9,4 0 0 N 1027,5 -
12.11.2018 21:00:00 11,8 10,1 0 0 N 1026,8 15
12.11.2018 20:00:00 12,0 10,3 0 0 N 1026,4 20
12.11.2018 19:00:00 13,4 11,4 4 2 SSE 1026,4 20
12.11.2018 18:00:00 14,0 11,2 4 2 ENE 1026,7 -
12.11.2018 17:00:00 16,7 10,8 4 2 SE 1026,6 -
12.11.2018 16:00:00 17,5 12,5 7 4 SSE 1026,5 -
12.11.2018 15:00:00 19,4 9,9 7 4 W 1026,5 -
12.11.2018 14:00:00 19,8 10,5 7 4 SW 1026,2 20
12.11.2018 13:00:00 20,0 10,7 4 2 ESE 1026,4 15
12.11.2018 12:00:00 18,5 10,7 7 4 SE 1026,7 15
12.11.2018 11:00:00 16,9 11,4 7 4 SW 1027,3 15
12.11.2018 10:00:00 15,1 11,0 7 4 SE 1027,4 15
12.11.2018 09:00:00 12,4 10,4 4 2 ESE 1027,3 15
12.11.2018 08:00:00 11,2 9,7 4 2 E 1027,1 20
12.11.2018 07:00:00 9,5 8,9 4 2 ENE 1026,5 20
12.11.2018 06:00:00 9,5 8,7 4 2 ENE 1026,8 -
12.11.2018 05:00:00 9,7 8,7 7 4 E 1026,5 -
12.11.2018 04:00:00 10,2 9,2 0 0 N 1026,1 -
12.11.2018 03:00:00 - - - - - - -
12.11.2018 02:00:00 - - - - - - -
12.11.2018 01:00:00 11,0 10,0 0 0 N 1025,3 -
12.11.2018 00:00:00 - - - - - - -
11.11.2018 23:00:00 - - - - - - -
11.11.2018 22:00:00 12,8 11,6 7 4 NNW 1025,0 -
11.11.2018 21:00:00 12,5 10,9 4 2 E 1024,0 15
11.11.2018 20:00:00 12,6 11,2 0 0 N 1023,6 15
11.11.2018 19:00:00 13,8 12,2 4 2 NW 1023,4 15
11.11.2018 18:00:00 13,9 11,8 0 0 N 1023,3 -
11.11.2018 17:00:00 15,4 12,4 0 0 N 1022,8 -
11.11.2018 16:00:00 17,6 12,3 4 2 NNW 1022,7 -
11.11.2018 15:00:00 19,9 11,5 4 2 SSW 1022,4 -
11.11.2018 14:00:00 20,6 11,9 7 4 ESE 1021,6 15
11.11.2018 13:00:00 20,7 11,8 7 4 SSE 1021,6 15
11.11.2018 12:00:00 18,8 11,8 7 4 ESE 1021,9 10
11.11.2018 11:00:00 16,8 12,0 7 4 E 1022,0 10
11.11.2018 10:00:00 14,8 11,3 7 4 E 1021,9 10
11.11.2018 09:00:00 12,8 10,6 7 4 E 1021,6 10
11.11.2018 08:00:00 11,0 9,3 11 6 E 1021,1 10
11.11.2018 07:00:00 10,2 9,1 7 4 ENE 1020,6 15
11.11.2018 06:00:00 10,4 9,2 4 2 E 1020,6 -
11.11.2018 05:00:00 10,6 9,4 - - - 1020,3 -
11.11.2018 04:00:00 11,6 10,4 4 2 E 1020,0 -
11.11.2018 03:00:00 - - - - - - -
11.11.2018 02:00:00 - - - - - - -
11.11.2018 01:00:00 11,8 10,8 0 0 N 1019,5 -
11.11.2018 00:00:00 - - - - - - -
10.11.2018 23:00:00 - - - - - - -
10.11.2018 22:00:00 12,0 10,8 0 0 N 1019,0 -
10.11.2018 21:00:00 13,0 12,1 0 0 N 1018,3 12
10.11.2018 20:00:00 13,5 12,6 0 0 N 1017,8 15
10.11.2018 19:00:00 13,8 12,6 0 0 N 1017,6 15
10.11.2018 18:00:00 - - - - - - -
10.11.2018 17:00:00 - - - - - - -
10.11.2018 16:00:00 - - - - - - -
10.11.2018 15:00:00 - - - - - - -
10.11.2018 14:00:00 20,0 12,7 7 4 SSE 1017,0 15
10.11.2018 13:00:00 20,0 13,2 7 4 SE 1017,3 15
10.11.2018 12:00:00 19,0 13,2 7 4 ESE 1017,8 15
10.11.2018 11:00:00 16,2 13,0 11 6 E 1018,4 15
10.11.2018 10:00:00 14,0 11,7 7 4 E 1018,5 15
10.11.2018 09:00:00 13,4 12,0 11 6 E 1018,4 15
10.11.2018 08:00:00 12,6 11,7 11 6 E 1018,4 15
10.11.2018 07:00:00 12,1 11,5 7 4 ENE 1018,0 12
10.11.2018 06:00:00 11,8 10,9 7 4 ENE 1018,1 -
10.11.2018 05:00:00 11,3 10,4 0 0 N 1018,3 -
10.11.2018 04:00:00 11,9 11,0 0 0 N 1018,3 -
10.11.2018 03:00:00 - - - - - - -
10.11.2018 02:00:00 - - - - - - -
10.11.2018 01:00:00 12,9 11,9 4 2 ESE 1018,7 -
10.11.2018 00:00:00 - - - - - - -
09.11.2018 23:00:00 - - - - - - -
09.11.2018 22:00:00 12,9 11,7 - - - 1019,0 -
09.11.2018 21:00:00 14,0 13,1 0 0 N 1018,6 12
09.11.2018 20:00:00 14,0 12,9 0 0 N 1018,4 20
09.11.2018 19:00:00 14,5 13,3 0 0 N 1018,2 20
09.11.2018 18:00:00 14,9 13,0 0 0 N 1018,3 -
09.11.2018 17:00:00 16,5 13,5 0 0 N 1018,0 -
09.11.2018 16:00:00 19,3 12,9 0 0 N 1017,9 -
09.11.2018 15:00:00 20,4 12,7 4 2 S 1018,0 -
09.11.2018 14:00:00 20,8 13,3 7 4 SSE 1017,8 15
09.11.2018 13:00:00 19,9 13,9 7 4 E 1018,5 15
09.11.2018 12:00:00 18,8 13,2 7 4 E 1019,1 15
09.11.2018 11:00:00 15,8 12,7 7 4 ENE 1019,9 15
09.11.2018 10:00:00 13,6 12,5 7 4 E 1019,9 10
09.11.2018 09:00:00 11,0 10,4 7 4 ENE 1019,9 0,3
09.11.2018 08:00:00 10,5 9,9 11 6 E 1019,9 0,3
09.11.2018 07:00:00 10,1 9,5 0 0 N 1019,5 0,3
09.11.2018 06:00:00 9,9 9,2 7 4 ENE 1019,9 -
09.11.2018 05:00:00 10,3 9,6 7 4 ENE 1019,6 -
09.11.2018 04:00:00 10,9 10,2 0 0 N 1019,5 -
09.11.2018 03:00:00 - - - - - - -
09.11.2018 02:00:00 - - - - - - -
09.11.2018 01:00:00 12,3 11,4 7 4 ENE 1019,6 -
09.11.2018 00:00:00 - - - - - - -
08.11.2018 23:00:00 - - - - - - -
08.11.2018 22:00:00 13,5 12,3 4 2 N 1019,9 -
08.11.2018 21:00:00 14,0 12,3 4 2 NE 1019,3 20
08.11.2018 20:00:00 15,8 13,4 7 4 NE 1019,2 20
08.11.2018 19:00:00 16,7 13,9 7 4 NNW 1018,9 20
08.11.2018 18:00:00 16,3 12,9 4 2 ENE 1019,1 -
08.11.2018 17:00:00 17,3 13,5 4 2 N 1019,0 -

tt = temperature
td = dewpoint
ff = wind speed
dd = wind direction
ppp = reduced air pressure
vv = visibility

Next stations